Date String (YYYY-MM-DD hh:mm:ss) UTC,Instrument flags,absolute air pressure of the measurement (hPa),sample flow rate (lpm),inlet stack bypass flow (lpm),air temperature of the measurement (°C),ambient temperature measured by the external sensor (°C),aerosol sample conditioner tube jacket temperature (°C),OPC LED temperature (°C),internal box temperature (°C),relative humidity of the measurement (%),span deviation,mass concentration of particles derived from Lorenz-Mie calculation of OPC scattering (μg/m³),mass concentration of particles derived from Lorenz-Mie calculation of OPC scattering (μg/m³),mass concentration of particles derived from Lorenz-Mie calculation of OPC scattering (μg/m³)
DateTimeUTC,F1_M11,P_M11,Q1_M11,Q2_M11,T1_M11,T2_M11,T3_M11,T4_M11,T5_M11,U1_M11,ZSPAN_M11,X0_M11,X2_M11,X1_M11
2023-10-30 14:00:00,SystemResetWarning,0835.6,5.00,000.00,021.5,020.3,000.0,030.0,022.8,8.5,0000.0,0004.71,0003.39,0003.19
2023-10-30 14:01:00,SystemResetWarning,0835.6,5.00,000.00,021.5,020.2,000.0,030.0,022.8,8.4,0000.0,0004.64,0003.38,0003.19
2023-10-30 14:02:00,SystemResetWarning,0835.5,5.00,000.00,021.5,020.1,000.0,029.9,022.7,8.3,0000.0,0004.74,0003.38,0003.19
2023-10-30 14:03:00,SystemResetWarning,0835.5,5.00,000.00,021.4,020.1,000.0,029.9,022.8,8.3,0000.0,0004.59,0003.38,0003.20
2023-10-30 14:04:00,SystemResetWarning,0835.6,5.00,000.00,021.5,020.9,000.0,029.9,023.2,8.3,0000.0,0004.55,0003.37,0003.20
2023-10-30 14:05:00,SystemResetWarning,0835.6,5.00,000.00,021.7,022.0,000.0,029.8,023.7,8.2,0000.0,0004.70,0003.40,0003.21
2023-10-30 14:06:00,SystemResetWarning,0835.6,5.00,000.00,021.8,022.1,000.0,029.9,023.7,8.1,0000.0,0004.74,0003.40,0003.20
2023-10-30 14:07:00,SystemResetWarning,0835.5,4.99,000.00,021.8,021.8,000.0,030.0,023.5,8.1,0000.0,0004.84,0003.42,0003.21
2023-10-30 14:08:00,SystemResetWarning,0835.6,4.99,000.00,021.8,021.5,000.0,030.0,023.3,8.1,0000.0,0004.81,0003.43,0003.21
2023-10-30 14:09:00,SystemResetWarning,0835.5,5.01,000.00,021.7,021.3,000.0,030.0,023.2,8.1,0000.0,0004.73,0003.43,0003.22
2023-10-30 14:10:00,SystemResetWarning,0835.5,5.01,000.00,021.7,021.1,000.0,030.0,023.2,8.1,0000.0,0004.80,0003.45,0003.23
2023-10-30 14:11:00,SystemResetWarning,0835.5,5.00,000.00,021.7,020.9,000.0,030.0,023.1,8.1,0000.0,0004.83,0003.46,0003.24
2023-10-30 14:12:00,SystemResetWarning,0835.6,5.00,000.00,021.7,020.7,000.0,030.0,023.0,8.1,0000.0,0004.84,0003.47,0003.25
2023-10-30 14:13:00,SystemResetWarning,0835.5,5.00,000.00,021.6,020.5,000.0,030.0,022.9,8.1,0000.0,0004.78,0003.46,0003.25
2023-10-30 14:14:00,SystemResetWarning,0835.5,5.00,000.00,021.6,020.4,000.0,030.0,022.9,8.1,0000.0,0004.80,0003.48,0003.25
2023-10-30 14:15:00,SystemResetWarning,0835.5,5.00,000.00,021.6,020.3,000.0,030.0,022.9,8.2,0000.0,0004.86,0003.50,0003.25
2023-10-30 14:16:00,SystemResetWarning,0835.5,5.00,000.00,021.5,020.2,000.0,030.0,022.9,8.1,0000.0,0005.88,0003.49,0003.26
2023-10-30 14:17:00,SystemResetWarning,0835.5,5.00,000.00,021.5,020.1,000.0,030.0,022.8,8.1,0000.0,0006.10,0003.50,0003.28
2023-10-30 14:18:00,SystemResetWarning,0835.6,5.00,000.00,021.5,020.0,000.0,030.0,022.8,8.2,0000.0,0006.10,0003.51,0003.30
2023-10-30 14:19:00,SystemResetWarning,0835.6,5.00,000.00,021.4,020.0,000.0,030.0,022.7,8.2,0000.0,0006.10,0003.52,0003.32
2023-10-30 14:20:00,SystemResetWarning,0835.5,5.00,000.00,021.4,020.0,000.0,029.9,022.8,8.4,0000.0,0006.32,0003.60,0003.34
2023-10-30 14:21:00,SystemResetWarning,0835.5,5.01,000.00,021.4,020.4,000.0,029.9,023.0,8.6,0000.0,0006.80,0003.69,0003.36
2023-10-30 14:22:00,SystemResetWarning,0835.5,5.00,000.00,021.6,021.6,000.0,029.9,023.5,8.4,0000.0,0007.31,0003.77,0003.37
2023-10-30 14:23:00,SystemResetWarning,0835.6,4.99,000.00,021.8,022.4,000.0,029.9,023.8,8.3,0000.0,0008.66,0003.85,0003.39
2023-10-30 14:24:00,SystemResetWarning,0835.6,4.99,000.00,021.8,022.3,000.0,030.0,023.7,8.2,0000.0,0009.22,0003.98,0003.41
2023-10-30 14:25:00,SystemResetWarning,0835.5,5.00,000.00,021.8,022.0,000.0,030.0,023.6,8.1,0000.0,0009.69,0004.09,0003.44
2023-10-30 14:26:00,SystemResetWarning,0835.5,5.01,000.00,021.8,021.7,000.0,030.0,023.5,8.1,0000.0,0009.77,0004.13,0003.46
2023-10-30 14:27:00,SystemResetWarning,0835.5,5.00,000.00,021.8,021.5,000.0,030.1,023.4,8.1,0000.0,0009.74,0004.20,0003.47
2023-10-30 14:28:00,SystemResetWarning,0835.5,4.99,000.00,021.8,021.3,000.0,030.1,023.3,8.1,0000.0,0009.62,0004.25,0003.48
2023-10-30 14:29:00,SystemResetWarning,0835.5,5.00,000.00,021.8,021.1,000.0,030.1,023.3,8.1,0000.0,0009.75,0004.28,0003.48
2023-10-30 14:30:00,SystemResetWarning,0835.5,5.01,000.00,021.8,020.9,000.0,030.1,023.2,8.1,0000.0,0009.82,0004.30,0003.48
2023-10-30 14:31:00,SystemResetWarning,0835.5,5.00,000.00,021.7,020.8,000.0,030.1,023.2,8.1,0000.0,0009.87,0004.29,0003.47
2023-10-30 14:32:00,SystemResetWarning,0835.5,5.00,000.00,021.7,020.7,000.0,030.1,023.1,8.1,0000.0,0009.80,0004.24,0003.46
2023-10-30 14:33:00,SystemResetWarning,0835.5,4.99,000.00,021.7,020.6,000.0,030.1,023.1,8.2,0000.0,0009.73,0004.17,0003.45
2023-10-30 14:34:00,SystemResetWarning,0835.5,5.00,000.00,021.7,020.5,000.0,030.1,023.1,8.6,0000.0,0008.67,0004.10,0003.42
2023-10-30 14:35:00,SystemResetWarning,0835.5,5.00,000.00,021.7,020.5,000.0,030.1,023.1,8.6,0000.0,0008.02,0004.01,0003.40
2023-10-30 14:36:00,SystemResetWarning,0835.7,4.99,000.00,021.7,020.4,000.0,030.1,023.1,8.6,0000.0,0007.43,0003.89,0003.37
2023-10-30 14:37:00,SystemResetWarning,0835.7,5.01,000.00,021.7,020.4,000.0,030.1,023.1,8.7,0000.0,0007.28,0003.83,0003.35
2023-10-30 14:38:00,SystemResetWarning,0835.6,5.01,000.00,021.6,020.4,000.0,030.1,023.1,8.6,0000.0,0006.58,0003.74,0003.33
2023-10-30 14:39:00,SystemResetWarning,0835.6,5.01,000.00,021.6,020.3,000.0,030.1,023.0,8.9,0000.0,0006.10,0003.67,0003.31
2023-10-30 14:40:00,SystemResetWarning,0835.6,4.99,000.00,021.6,020.3,000.0,030.1,023.0,9.0,0000.0,0005.82,0003.63,0003.30
2023-10-30 14:41:00,SystemResetWarning,0835.6,5.00,000.00,021.6,020.3,000.0,030.1,023.0,9.0,0000.0,0005.58,0003.58,0003.28
2023-10-30 14:42:00,SystemResetWarning,0835.6,5.00,000.00,021.6,020.3,000.0,030.0,023.0,8.7,0000.0,0005.31,0003.52,0003.26
2023-10-30 14:43:00,SystemResetWarning,0835.6,5.00,000.00,021.6,020.3,000.0,030.0,023.0,8.8,0000.0,0005.05,0003.47,0003.25
2023-10-30 14:44:00,SystemResetWarning,0835.6,5.01,000.00,021.6,020.3,000.0,030.0,023.0,8.8,0000.0,0004.92,0003.44,0003.25
2023-10-30 14:45:00,SystemResetWarning,0835.6,5.01,000.00,021.6,020.2,000.0,030.0,023.0,8.7,0000.0,0005.51,0003.44,0003.26
2023-10-30 14:46:00,SystemResetWarning,0835.6,5.00,000.00,021.6,020.2,000.0,030.0,023.0,8.6,0000.0,0006.00,0003.43,0003.27
2023-10-30 14:47:00,SystemResetWarning,0835.6,5.00,000.00,021.6,020.2,000.0,030.0,023.1,8.5,0000.0,0006.03,0003.43,0003.28
2023-10-30 14:48:00,SystemResetWarning,0835.6,5.00,000.00,021.6,020.2,000.0,030.0,023.0,8.4,0000.0,0006.09,0003.44,0003.29
2023-10-30 14:49:00,SystemResetWarning,0835.6,5.00,000.00,021.5,020.2,000.0,030.0,023.0,8.4,0000.0,0006.09,0003.45,0003.31
2023-10-30 14:50:00,SystemResetWarning,0835.8,5.00,000.00,021.5,020.1,000.0,030.0,023.0,8.5,0000.0,0006.10,0003.46,0003.31
2023-10-30 14:51:00,SystemResetWarning,0835.8,5.00,000.00,021.5,020.1,000.0,030.0,023.0,8.6,0000.0,0006.11,0003.46,0003.31
2023-10-30 14:52:00,SystemResetWarning,0835.7,5.00,000.00,021.5,020.2,000.0,029.9,023.0,8.5,0000.0,0006.12,0003.45,0003.31
2023-10-30 14:53:00,SystemResetWarning,0835.8,5.00,000.00,021.6,021.2,000.0,029.9,023.4,8.6,0000.0,0006.08,0003.45,0003.32
2023-10-30 14:54:00,SystemResetWarning,0835.8,5.00,000.00,021.8,022.1,000.0,029.9,023.8,8.8,0000.0,0006.03,0003.46,0003.33
2023-10-30 14:55:00,SystemResetWarning,0835.8,4.99,000.00,021.8,022.0,000.0,030.0,023.7,9.0,0000.0,0005.89,0003.48,0003.34
2023-10-30 14:56:00,SystemResetWarning,0835.8,4.99,000.00,021.8,021.8,000.0,030.0,023.6,9.2,0000.0,0005.37,0003.49,0003.34
2023-10-30 14:57:00,SystemResetWarning,0835.8,5.00,000.00,021.9,021.6,000.0,030.0,023.5,9.1,0000.0,0004.65,0003.48,0003.34
2023-10-30 14:58:00,SystemResetWarning,0835.8,5.01,000.00,021.9,021.4,000.0,030.1,023.5,9.3,0000.0,0005.20,0003.47,0003.33
2023-10-30 14:59:00,SystemResetWarning,0835.8,5.00,000.00,021.9,021.3,000.0,030.1,023.4,9.4,0000.0,0005.20,0003.47,0003.33
